[[{"header":{"parameterUnit":"m.s-1","parameterCategory":1,"la1":30.2991,"la2":30.254,"lo1":-89.0895,"lo2":-89.0444,"dy":0.0017,"dx":0.0017,"nx":28,"ny":28,"refTime":"2024-04-16T09:00:00:Z","depth":0,"parameterNumber":2,"parameterNumberName":"U-component_of_WINDS"},"data":[0,0,0,0,0,0,0,0,0,0,0,0,0,0,0,0,0,0,0,0,0,0,0,0,0,0,0,0,0,0,0,0,0,0,0,0,0,0,0,0,0,0,0,0,0,0,0,0,0,0,0,0,0,0,0,0,0,0,-2.8312,-2.8312,0,-2.8384,-2.8385,-2.8386,-2.8375,-2.8374,-2.8372,-2.8371,-2.8445,-2.8448,-2.8451,0,0,0,0,0,0,0,0,0,0,0,0,0,-2.8164,-2.8166,-2.8311,-2.8312,-2.8313,-2.8384,-2.8385,-2.8386,-2.8375,-2.8374,-2.8372,-2.8371,-2.8444,-2.8448,-2.8451,0,0,0,0,0,0,0,0,0,0,0,0,0,-2.8231,-2.8167,-2.8311,-2.8316,-2.8317,-2.8384,-2.8385,-2.8386,-2.8375,-2.8374,-2.8372,-2.837,-2.8443,-2.8447,-2.8452,-2.8518,0,0,-2.8466,-2.8468,0,0,0,0,0,0,0,0,-2.8227,-2.8237,-2.8315,-2.8316,-2.8318,-2.8369,-2.836,-2.843,-2.8376,-2.8353,-2.8371,-2.8369,-2.8421,-2.8427,-2.8445,-2.8521,-2.8525,-2.8467,-2.847,-2.8472,-2.8473,0,0,0,0,0,0,0,-2.8223,-2.8234,-2.834,-2.8316,-2.8318,-2.8315,-2.8323,-2.8373,-2.8397,-2.8355,-2.8355,-2.8363,-2.8422,-2.8441,-2.8447,-2.8526,-2.8467,-2.8471,-2.8474,-2.8475,-2.8661,-2.8663,0,0,0,0,0,0,-2.8217,-2.823,-2.8338,-2.8342,-2.8267,-2.8319,-2.8328,-2.8354,-2.8396,-2.8401,-2.8365,-2.8363,-2.8434,-2.8441,-2.8449,-2.853,-2.8472,-2.8476,-2.8479,-2.8659,-2.8662,-2.8664,0,0,0,0,0,0,-2.8214,-2.8226,-2.8335,-2.8286,-2.83,-2.8324,-2.8353,-2.8356,-2.8376,-2.8403,-2.8408,-2.838,-2.8432,-2.8443,-2.8501,-2.8532,-2.8478,-2.8482,-2.8657,-2.866,-2.8663,-2.8691,0,0,0,0,0,0,-2.8209,-2.8225,-2.825,-2.8287,-2.8302,-2.8385,-2.8355,-2.8359,-2.8384,-2.8381,-2.8419,-2.8423,-2.8432,-2.8494,-2.8506,-2.8538,-2.8486,-2.8654,-2.8658,-2.8662,-2.8687,-2.8695,-2.8701,0,0,0,0,0,-2.8204,-2.8255,-2.8252,-2.8265,-2.8334,-2.8387,-2.8396,-2.8405,-2.8386,-2.8412,-2.843,-2.8422,-2.8527,-2.85,-2.8513,-2.8547,-2.8652,-2.8657,-2.8661,-2.8684,-2.8693,-2.8701,0,0,0,0,0,0,-2.8221,-2.826,-2.8256,-2.832,-2.8351,-2.8385,-2.8417,-2.8414,-2.845,-2.8447,-2.8456,-2.8465,-2.8524,-2.8542,-2.8511,-2.8614,-2.8587,-2.8595,-2.86,-2.8609,-2.8615,-2.8609,-2.849,0,0,0,0,0,-2.8232,-2.8272,-2.8304,-2.8357,-2.8373,-2.8393,-2.8416,-2.8421,-2.8453,-2.8465,-2.8488,-2.8519,-2.8559,-2.8585,-2.8623,-2.869,-2.8699,-2.872,-2.8727,-2.8732,-2.8738,-2.8776,-2.8786,-2.868,-2.868,-2.868,0,0,-2.8255,-2.8282,-2.8306,-2.8362,-2.8385,-2.8427,-2.8403,-2.8448,-2.8479,-2.8472,-2.8528,-2.8546,-2.8582,-2.8645,-2.8674,-2.8661,-2.877,-2.8738,-2.8743,-2.8746,-2.8782,-2.8792,-2.8801,-2.8683,-2.8682,-2.8682,0,0,-2.8319,-2.8343,-2.8391,-2.8416,-2.8452,-2.8466,-2.8477,-2.8513,-2.8525,-2.8582,-2.8578,-2.8615,-2.8684,-2.871,-2.8732,-2.8808,-2.8802,-2.882,-2.8855,-2.8892,-2.89,-2.8908,-2.8935,-2.8945,-2.8826,-2.8826,-2.8827,0,-2.8343,-2.8406,-2.8415,-2.8461,-2.8486,-2.8482,-2.8531,-2.8554,-2.8602,-2.8619,-2.8605,-2.8692,-2.8716,-2.8785,-2.8804,-2.8822,-2.8836,-2.8815,-2.8898,-2.8906,-2.8913,-2.8939,-2.8949,-2.8828,-2.8828,-2.8828,-2.8828,0,-2.8434,-2.8477,-2.8511,-2.8558,-2.8587,-2.8634,-2.8651,-2.8679,-2.8682,-2.8697,-2.8756,-2.8785,-2.8829,-2.8846,-2.8849,-2.8917,-2.8908,-2.8896,-2.8869,-2.8925,-2.895,-2.896,-2.8831,-2.883,-2.883,-2.8829,0,0,-2.8508,-2.8561,-2.8573,-2.8595,-2.8637,-2.867,-2.8718,-2.8762,-2.8786,-2.882,-2.886,-2.8919,-2.8909,-2.8934,-2.894,-2.8972,-2.9031,-2.8956,-2.8957,-2.8969,-2.9109,-2.9117,-2.9128,-2.9028,-2.903,-2.9032,-2.9106,0,-2.8576,-2.8659,-2.867,-2.8744,-2.8785,-2.8783,-2.8824,-2.8855,-2.8871,-2.8908,-2.8925,-2.8967,-2.895,-2.8966,-2.8998,-2.9017,-2.9059,-2.9012,-2.9066,-2.9068,-2.9056,-2.9141,-2.915,-2.9218,-2.9115,-2.9117,-2.9118,0,-2.8665,-2.8702,-2.878,-2.8817,-2.8835,-2.8872,-2.8914,-2.8949,-2.8984,-2.8994,-2.9023,-2.9025,-2.9075,-2.9047,-2.9116,-2.9084,-2.9107,-2.912,-2.9123,-2.9127,-2.9095,-2.9148,-2.924,-2.925,-2.9133,-2.9132,-2.9131,0,-2.8711,-2.8781,-2.8836,-2.8855,-2.89,-2.8926,-2.8946,-2.8979,-2.9006,-2.9043,-2.906,-2.9102,-2.9126,-2.9159,-2.9173,-2.9151,-2.9241,-2.9214,-2.925,-2.925,-2.9268,-2.9267,-2.9365,-2.9284,-2.9284,-2.9284,-2.9284,0,-2.8785,-2.8833,-2.8858,-2.8892,-2.8946,-2.8959,-2.9013,-2.9032,-2.9062,-2.91,-2.9102,-2.9138,-2.9154,-2.9193,-2.9205,-2.9261,-2.9271,-2.928,-2.9283,-2.928,-2.9279,-2.9294,-2.929,-2.9287,-2.9286,-2.9286,-2.9285,0,-2.8845,-2.8864,-2.8925,-2.8963,-2.8974,-2.9012,-2.9045,-2.9079,-2.9095,-2.9144,-2.9156,-2.9182,-2.9228,-2.9246,-2.9302,-2.931,-2.9374,-2.9373,-2.9362,-2.9362,-2.9397,-2.9394,-2.9508,-2.9524,-2.9434,-2.9434,-2.9435,0,-2.8891,-2.8928,-2.897,-2.8996,-2.9017,-2.9059,-2.9086,-2.9101,-2.913,-2.9173,-2.9202,-2.9248,-2.9285,-2.9359,-2.9383,-2.9427,-2.9426,-2.9464,-2.9433,-2.9429,-2.9427,-2.9424,-2.9428,-2.9469,-2.947,-2.947,-2.9471,0,-2.897,-2.8978,-2.9017,-2.906,-2.9093,-2.9127,-2.9161,-2.9182,-2.9202,-2.9234,-2.9281,-2.9311,-2.9369,-2.9415,-2.946,-2.9481,-2.948,-2.9481,-2.9492,-2.9489,-2.9481,-2.9486,-2.9377,-2.9478,-2.9477,-2.9477,-2.9476,-2.9476,-2.9024,-2.9057,-2.9093,-2.9137,-2.9164,-2.9195,-2.9229,-2.925,-2.929,-2.9339,-2.9345,-2.9396,-2.9432,-2.9492,-2.9515,-2.9556,-2.9546,-2.9561,-2.9565,-2.9569,-2.9571,-2.9475,-2.9564,-2.9564,-2.9564,-2.9564,-2.9564,0,-2.9103,-2.9126,-2.9167,-2.9214,-2.9249,-2.9246,-2.9283,-2.9312,-2.9357,-2.9391,-2.9428,-2.9483,-2.9528,-2.9556,-2.9602,-2.9629,-2.963,-2.964,-2.9638,-2.9643,-2.9577,-2.9563,-2.9639,-2.9639,-2.9639,-2.9639,-2.9639,-2.9639,-2.9148,-2.9204,-2.9217,-2.9287,-2.931,-2.936,-2.9381,-2.9411,-2.9438,-2.9499,-2.9537,-2.9555,-2.9587,-2.9635,-2.9676,-2.9684,-2.97,-2.9712,-2.9718,-2.9656,-2.9648,-2.964,-2.9627,-2.9715,-2.9715,-2.9781,-2.9782,-2.9782]},{"header":{"parameterUnit":"m.s-1","parameterCategory":1,"la1":30.2991,"la2":30.254,"lo1":-89.0895,"lo2":-89.0444,"dy":0.0017,"dx":0.0017,"nx":28,"ny":28,"refTime":"2024-04-16T09:00:00:Z","depth":0,"parameterNumber":3,"parameterNumberName":"V-component_of_WINDS"},"data":[0,0,0,0,0,0,0,0,0,0,0,0,0,0,0,0,0,0,0,0,0,0,0,0,0,0,0,0,0,0,0,0,0,0,0,0,0,0,0,0,0,0,0,0,0,0,0,0,0,0,0,0,0,0,0,0,0,0,3.5495,3.5495,0,3.5492,3.5492,3.5492,3.5479,3.5478,3.5478,3.5478,3.5472,3.5472,3.5472,0,0,0,0,0,0,0,0,0,0,0,0,0,3.5486,3.5487,3.5495,3.5495,3.5495,3.5492,3.5492,3.5492,3.5479,3.5478,3.5478,3.5477,3.5472,3.5472,3.5472,0,0,0,0,0,0,0,0,0,0,0,0,0,3.5487,3.5487,3.5495,3.5488,3.5487,3.5492,3.5492,3.5492,3.5479,3.5478,3.5478,3.5477,3.5472,3.5472,3.5472,3.5483,0,0,3.5473,3.5473,0,0,0,0,0,0,0,0,3.5487,3.5488,3.5489,3.5488,3.5487,3.5485,3.5487,3.5489,3.5479,3.5482,3.5478,3.5477,3.5477,3.5476,3.5477,3.5483,3.5483,3.5473,3.5473,3.5473,3.5473,0,0,0,0,0,0,0,3.5487,3.5488,3.5494,3.5489,3.5488,3.5484,3.5484,3.5487,3.5482,3.5481,3.548,3.5481,3.5476,3.5477,3.5477,3.5483,3.5473,3.5473,3.5473,3.5474,3.55,3.55,0,0,0,0,0,0,3.5489,3.5488,3.5494,3.5494,3.5486,3.5485,3.5484,3.5486,3.5482,3.5481,3.5481,3.548,3.5477,3.5476,3.5476,3.549,3.5473,3.5474,3.5474,3.5499,3.55,3.55,0,0,0,0,0,0,3.5488,3.5489,3.5494,3.549,3.5491,3.5485,3.5488,3.5487,3.5487,3.5481,3.548,3.5483,3.5476,3.5476,3.5482,3.549,3.5474,3.5474,3.5498,3.5499,3.55,3.5517,0,0,0,0,0,0,3.5488,3.5489,3.5494,3.5491,3.5491,3.55,3.5488,3.5487,3.5488,3.5487,3.5483,3.5482,3.5476,3.5482,3.5483,3.549,3.5474,3.5498,3.5499,3.55,3.5516,3.5518,3.5521,0,0,0,0,0,3.5488,3.5497,3.5494,3.5495,3.5496,3.5501,3.5501,3.5495,3.5489,3.5493,3.5489,3.5482,3.5489,3.5483,3.5483,3.5491,3.5497,3.5498,3.55,3.5515,3.5518,3.5521,0,0,0,0,0,0,3.55,3.5497,3.5493,3.5502,3.5502,3.5498,3.5503,3.5498,3.5499,3.5498,3.5489,3.5489,3.5496,3.5494,3.5487,3.5502,3.5492,3.5493,3.5503,3.5506,3.5509,3.5509,3.5474,0,0,0,0,0,3.5504,3.5508,3.5505,3.5513,3.5513,3.5509,3.551,3.5506,3.5505,3.5505,3.5501,3.55,3.5503,3.5504,3.5506,3.5516,3.5515,3.5521,3.5523,3.5525,3.5527,3.5533,3.5536,3.5504,3.5504,3.5504,0,0,3.5511,3.551,3.5513,3.5515,3.5515,3.5519,3.5508,3.5513,3.5517,3.5505,3.5511,3.5509,3.5508,3.5516,3.552,3.5514,3.5536,3.5527,3.5529,3.5529,3.5535,3.5538,3.5541,3.5505,3.5505,3.5505,0,0,3.5527,3.5527,3.5534,3.5535,3.5535,3.5532,3.5534,3.5532,3.553,3.5537,3.5529,3.5532,3.5536,3.5536,3.5536,3.5555,3.5548,3.5555,3.5568,3.5574,3.5577,3.5579,3.5587,3.5589,3.5556,3.5556,3.5556,0,3.5536,3.5543,3.5538,3.5545,3.5546,3.5538,3.5546,3.5546,3.5546,3.5547,3.5541,3.5547,3.5545,3.5555,3.556,3.556,3.5562,3.5555,3.5577,3.5579,3.5581,3.5588,3.5591,3.5557,3.5557,3.5557,3.5557,0,3.5555,3.5561,3.5566,3.5569,3.5571,3.5578,3.5574,3.5577,3.5573,3.557,3.5578,3.5576,3.5578,3.5579,3.5574,3.5588,3.5585,3.5578,3.5568,3.5585,3.5592,3.5595,3.5559,3.5558,3.5558,3.5558,0,0,3.5578,3.5579,3.5581,3.5583,3.5583,3.5587,3.5594,3.5597,3.56,3.5601,3.5607,3.5611,3.5606,3.5606,3.5601,3.5607,3.5624,3.5599,3.5599,3.5605,3.564,3.5646,3.5649,3.5619,3.562,3.562,3.5641,0,3.5594,3.5607,3.5603,3.5616,3.5621,3.5614,3.562,3.5621,3.562,3.5624,3.5622,3.5626,3.5617,3.5618,3.5623,3.5621,3.5631,3.5619,3.5625,3.5625,3.5626,3.5653,3.5659,3.5678,3.5643,3.5644,3.5644,0,3.5615,3.5619,3.5632,3.5634,3.5636,3.5641,3.5645,3.5649,3.565,3.5649,3.5651,3.5645,3.5652,3.5642,3.5652,3.5644,3.5646,3.5646,3.5646,3.5647,3.5636,3.5655,3.5684,3.5687,3.5648,3.5648,3.5647,0,3.5631,3.5639,3.5649,3.5651,3.5652,3.5657,3.5657,3.5658,3.5661,3.5664,3.5666,3.5669,3.5671,3.5674,3.567,3.5662,3.5681,3.567,3.568,3.568,3.5684,3.5684,3.5715,3.5684,3.5684,3.5684,3.5684,0,3.5651,3.5659,3.5657,3.5663,3.5673,3.5669,3.5679,3.5679,3.568,3.5686,3.5679,3.5685,3.5679,3.5684,3.5681,3.569,3.5691,3.569,3.5689,3.5691,3.5691,3.5693,3.5691,3.5685,3.5685,3.5685,3.5685,0,3.567,3.5669,3.568,3.5681,3.5682,3.5689,3.569,3.5696,3.5695,3.5702,3.5704,3.5701,3.5707,3.5704,3.5709,3.5707,3.572,3.5716,3.572,3.5719,3.573,3.573,3.5763,3.5768,3.5734,3.5734,3.5734,0,3.5683,3.569,3.5693,3.5697,3.5699,3.5705,3.5709,3.5706,3.5709,3.5713,3.5718,3.5724,3.5728,3.5738,3.5736,3.5741,3.5738,3.575,3.5739,3.5741,3.574,3.574,3.5741,3.5752,3.5752,3.5753,3.5753,0,3.5706,3.5706,3.5712,3.5718,3.5723,3.5727,3.5731,3.5734,3.5731,3.5736,3.5743,3.5746,3.5753,3.5759,3.5763,3.5763,3.5758,3.5757,3.576,3.5762,3.5764,3.5764,3.5727,3.5756,3.5756,3.5755,3.5755,3.5755,3.5723,3.573,3.5734,3.5741,3.5744,3.5748,3.5755,3.5755,3.5761,3.5767,3.5764,3.5773,3.5775,3.5781,3.5782,3.5788,3.5783,3.5787,3.5788,3.5789,3.5792,3.5763,3.5789,3.5789,3.5789,3.5788,3.5788,0,3.5747,3.575,3.5757,3.5763,3.5769,3.5765,3.5769,3.5774,3.5782,3.5785,3.5791,3.5799,3.5806,3.5805,3.5811,3.5816,3.5814,3.5818,3.5818,3.5819,3.5795,3.5792,3.582,3.582,3.582,3.582,3.582,3.582,3.576,3.5772,3.5772,3.5786,3.5788,3.5797,3.5801,3.5805,3.5807,3.5818,3.5824,3.5824,3.5826,3.5833,3.5838,3.5838,3.5841,3.5846,3.5845,3.5823,3.582,3.5817,3.5815,3.5847,3.5847,3.5869,3.5869,3.5869]}]]